TimeCDT,TemperatureF,Dew PointF,Humidity,Sea Level PressureIn,VisibilityMPH,Wind Direction,Wind SpeedMPH,Gust SpeedMPH,PrecipitationIn,Events,Conditions,WindDirDegrees,DateUTC
12:15 AM,25.2,20.5,82,30.01,10.0,Calm,Calm,-,N/A,,Clear,0,2014-04-05 05:15:00
12:35 AM,24.6,20.3,84,30.01,10.0,Calm,Calm,-,N/A,,Clear,0,2014-04-05 05:35:00
12:55 AM,22.8,19.2,86,30.01,10.0,Calm,Calm,-,N/A,,Clear,0,2014-04-05 05:55:00
1:15 AM,22.3,18.7,86,30.01,10.0,Calm,Calm,-,N/A,,Clear,0,2014-04-05 06:15:00
1:35 AM,20.1,18.5,93,30.02,10.0,Calm,Calm,-,N/A,,Clear,0,2014-04-05 06:35:00
1:55 AM,19.8,17.8,92,30.02,7.0,Calm,Calm,-,N/A,,Clear,0,2014-04-05 06:55:00
2:15 AM,19.6,18.1,94,30.03,5.0,Calm,Calm,-,N/A,,Clear,0,2014-04-05 07:15:00
2:35 AM,18.0,16.2,93,30.03,0.5,Calm,Calm,-,N/A,Fog,Light Freezing Fog,0,2014-04-05 07:35:00
2:55 AM,17.8,16.3,94,30.03,0.2,Calm,Calm,-,N/A,Fog,Light Freezing Fog,0,2014-04-05 07:55:00
3:15 AM,16.0,13.5,90,30.03,0.2,Calm,Calm,-,N/A,Fog,Light Freezing Fog,0,2014-04-05 08:15:00
3:35 AM,17.1,14.9,91,30.03,5.0,Calm,Calm,-,N/A,,Clear,0,2014-04-05 08:35:00
3:55 AM,15.8,13.3,90,30.04,7.0,Calm,Calm,-,N/A,,Clear,0,2014-04-05 08:55:00
4:15 AM,16.0,13.8,91,30.04,0.8,Calm,Calm,-,N/A,,Mist,0,2014-04-05 09:15:00
4:35 AM,15.1,13.1,92,30.05,0.2,Calm,Calm,-,N/A,Fog,Light Freezing Fog,0,2014-04-05 09:35:00
4:55 AM,14.5,12.2,90,30.05,5.0,Calm,Calm,-,N/A,,Clear,0,2014-04-05 09:55:00
5:15 AM,15.3,13.3,92,30.06,5.0,Calm,Calm,-,N/A,,Clear,0,2014-04-05 10:15:00
5:35 AM,14.5,12.2,90,30.06,5.0,Calm,Calm,-,N/A,,Clear,0,2014-04-05 10:35:00
5:55 AM,14.0,11.5,90,30.06,7.0,Calm,Calm,-,N/A,,Clear,0,2014-04-05 10:55:00
6:15 AM,13.6,11.3,90,30.07,4.0,Calm,Calm,-,N/A,,Clear,0,2014-04-05 11:15:00
6:35 AM,12.9,10.4,90,30.07,2.0,Calm,Calm,-,N/A,,Clear,0,2014-04-05 11:35:00
6:55 AM,11.8,9.0,88,30.08,0.5,Calm,Calm,-,N/A,Fog,Light Freezing Fog,0,2014-04-05 11:55:00
7:15 AM,12.2,9.3,88,30.09,4.0,Calm,Calm,-,N/A,,Clear,0,2014-04-05 12:15:00
7:35 AM,14.0,11.5,90,30.10,3.0,Calm,Calm,-,N/A,,Clear,0,2014-04-05 12:35:00
7:55 AM,13.1,10.8,90,30.10,2.5,Calm,Calm,-,N/A,,Clear,0,2014-04-05 12:55:00
8:15 AM,15.3,13.3,92,30.10,4.0,Calm,Calm,-,N/A,,Clear,0,2014-04-05 13:15:00
8:35 AM,16.7,14.5,91,30.11,5.0,Calm,Calm,-,N/A,,Clear,0,2014-04-05 13:35:00
8:55 AM,19.6,18.0,93,30.11,7.0,Calm,Calm,-,N/A,,Clear,0,2014-04-05 13:55:00
9:15 AM,21.6,19.8,93,30.11,10.0,Calm,Calm,-,N/A,,Clear,0,2014-04-05 14:15:00
9:35 AM,24.1,23.0,96,30.11,10.0,Calm,Calm,-,N/A,,Clear,0,2014-04-05 14:35:00
9:55 AM,26.2,25.2,96,30.11,10.0,Calm,Calm,-,N/A,,Clear,0,2014-04-05 14:55:00
10:15 AM,28.4,27.1,95,30.11,10.0,Calm,Calm,-,N/A,,Clear,0,2014-04-05 15:15:00
10:35 AM,30.6,25.2,80,30.11,10.0,Calm,Calm,-,N/A,,Clear,0,2014-04-05 15:35:00
10:55 AM,32.9,25.3,74,30.12,10.0,South,5.8,-,N/A,,Clear,190,2014-04-05 15:55:00
11:15 AM,34.9,25.2,68,30.12,10.0,SSW,5.8,-,N/A,,Clear,210,2014-04-05 16:15:00
11:35 AM,35.8,25.7,67,30.12,10.0,SSW,8.1,-,N/A,,Clear,210,2014-04-05 16:35:00
11:55 AM,36.7,25.7,64,30.11,10.0,SSW,4.6,-,N/A,,Clear,210,2014-04-05 16:55:00
12:15 PM,37.4,25.7,63,30.10,10.0,SSW,6.9,-,N/A,,Clear,200,2014-04-05 17:15:00
12:35 PM,38.3,25.9,61,30.10,10.0,South,8.1,-,N/A,,Clear,190,2014-04-05 17:35:00
12:55 PM,38.7,25.5,59,30.10,10.0,SSW,9.2,-,N/A,,Clear,200,2014-04-05 17:55:00
1:15 PM,39.2,24.3,55,30.10,10.0,SSW,9.2,-,N/A,,Clear,210,2014-04-05 18:15:00
1:35 PM,39.4,23.4,53,30.09,10.0,SSW,8.1,-,N/A,,Clear,210,2014-04-05 18:35:00
1:55 PM,39.7,23.5,52,30.09,10.0,SSW,12.7,-,N/A,,Clear,210,2014-04-05 18:55:00
2:15 PM,39.7,23.7,53,30.09,10.0,SSW,10.4,-,N/A,,Clear,210,2014-04-05 19:15:00
2:35 PM,40.3,24.1,52,30.09,10.0,SSW,10.4,-,N/A,,Clear,210,2014-04-05 19:35:00
2:55 PM,40.5,24.6,53,30.08,10.0,SSW,5.8,-,N/A,,Clear,200,2014-04-05 19:55:00
3:15 PM,40.8,24.3,52,30.07,10.0,South,9.2,-,N/A,,Clear,190,2014-04-05 20:15:00
3:35 PM,41.2,23.9,50,30.07,10.0,SSW,11.5,-,N/A,,Clear,210,2014-04-05 20:35:00
3:55 PM,41.4,24.3,51,30.06,10.0,SSW,10.4,-,N/A,,Clear,210,2014-04-05 20:55:00
4:15 PM,41.9,24.6,50,30.06,10.0,SSW,9.2,-,N/A,,Clear,210,2014-04-05 21:15:00
4:35 PM,42.1,24.3,49,30.05,10.0,South,10.4,16.1,N/A,,Clear,180,2014-04-05 21:35:00
4:55 PM,42.1,24.6,50,30.05,10.0,SSW,8.1,-,N/A,,Clear,200,2014-04-05 21:55:00
5:15 PM,41.7,26.2,54,30.04,10.0,South,12.7,-,N/A,,Clear,170,2014-04-05 22:15:00
5:35 PM,41.7,26.4,55,30.04,10.0,South,11.5,-,N/A,,Clear,170,2014-04-05 22:35:00
5:55 PM,41.4,26.1,55,30.03,10.0,South,10.4,-,N/A,,Clear,170,2014-04-05 22:55:00
6:15 PM,41.5,26.1,54,30.03,10.0,South,10.4,-,N/A,,Clear,180,2014-04-05 23:15:00
6:35 PM,41.4,26.2,55,30.03,10.0,South,8.1,11.5,N/A,,Clear,170,2014-04-05 23:35:00
6:55 PM,40.5,26.6,58,30.02,10.0,South,5.8,-,N/A,,Clear,180,2014-04-05 23:55:00
7:35 PM,39.2,27.0,62,30.02,10.0,SSE,4.6,-,N/A,,Clear,160,2014-04-06 00:35:00
7:55 PM,38.7,28.4,67,30.02,10.0,SSE,5.8,-,N/A,,Clear,150,2014-04-06 00:55:00
8:15 PM,37.8,28.9,71,30.02,10.0,SSE,5.8,-,N/A,,Clear,150,2014-04-06 01:15:00
8:35 PM,38.3,28.9,69,30.03,10.0,SSE,3.5,-,N/A,,Mostly Cloudy,150,2014-04-06 01:35:00
8:55 PM,38.8,29.1,68,30.03,10.0,SE,5.8,-,N/A,,Overcast,130,2014-04-06 01:55:00
9:15 PM,38.3,29.3,70,30.03,10.0,SE,4.6,-,N/A,,Overcast,140,2014-04-06 02:15:00
9:35 PM,38.3,29.7,71,30.02,10.0,East,3.5,-,N/A,,Overcast,100,2014-04-06 02:35:00
9:55 PM,37.8,29.8,73,30.01,10.0,ESE,8.1,-,N/A,,Overcast,110,2014-04-06 02:55:00
10:15 PM,38.3,30.0,72,30.00,10.0,SE,6.9,-,N/A,,Mostly Cloudy,140,2014-04-06 03:15:00
10:35 PM,37.4,30.0,75,30.01,10.0,SSE,5.8,-,N/A,,Mostly Cloudy,150,2014-04-06 03:35:00
10:55 PM,36.7,29.8,76,30.01,10.0,SE,5.8,-,N/A,,Mostly Cloudy,140,2014-04-06 03:55:00
11:15 PM,36.0,29.7,78,30.01,10.0,SE,4.6,-,N/A,,Scattered Clouds,140,2014-04-06 04:15:00
11:35 PM,34.9,29.1,79,30.01,10.0,SE,5.8,-,N/A,,Clear,140,2014-04-06 04:35:00
11:55 PM,34.7,29.1,80,30.01,10.0,SSE,3.5,-,N/A,,Clear,150,2014-04-06 04:55:00